Simultaneous Nadir Overpasses (SNOs) Predictions

Prediction of SNOs between METOP-A and TERRA Satellite Orbit:

Table of predicted SNOs for the next 14.0 days since TLE Epoch: 12/1/2012
Index Date (METOP-A) Time (METOP-A) METOP-A Lat,Lon Date (TERRA) Time (TERRA) TERRA Lat,Lon Distance(km) Time Diff (sec)
1 12/03/2012 14:29:56 -81.34,-169.57 12/03/2012 14:30:14 -81.33,-169.76 3.38 18
2 12/03/2012 15:20:36 81.34, -1.94 12/03/2012 15:19:40 81.33, -1.99 1.07 56
3 12/06/2012 10:04:16 -81.34,-102.99 12/06/2012 10:04:29 -81.34,-103.14 2.45 13
4 12/06/2012 10:54:56 81.34, 64.61 12/06/2012 10:53:55 81.34, 64.61 0.10 61
5 12/09/2012 05:38:35 -81.34, -36.49 12/09/2012 05:38:44 -81.34, -36.63 2.39 9
6 12/09/2012 06:29:15 81.34, 131.10 12/09/2012 06:28:10 81.34, 131.09 0.18 65
7 12/12/2012 01:12:53 -81.34, 29.94 12/12/2012 01:12:59 -81.34, 29.76 3.08 6
8 12/12/2012 02:03:33 81.34,-162.49 12/12/2012 02:02:25 81.34,-162.54 0.91 68
9 12/14/2012 20:47:09 -81.34, 96.31 12/14/2012 20:47:12 -81.35, 96.42 2.20 3




NCC Satellite Simultaneous Nadir Overpasses (SNOs) Prediction Service
